Morgantown, WV

2:21 PM EDT on June 25, 2017 (GMT -0400)
Morgantown Municipal-Hart

Weather History for KMGW - January, 2013

Change the Weather History Date:

Friday, January 25, 2013

  Actual Average Record
Temperature  
Mean Temperature 16 °F 32 °F  
Max Temperature 22 °F 39 °F 75 °F (1950)
Min Temperature 10 °F 24 °F -7 °F (1961)
Degree Days  
Heating Degree Days 49 34  
Month to date heating degree days 786 847  
Since 1 July heating degree days 2644 2831  
Cooling Degree Days 0 0  
Month to date cooling degree days 0 0  
Year to date cooling degree days 0 0  
Moisture  
Dew Point 13 °F    
Average Humidity 73    
Maximum Humidity 92    
Minimum Humidity 54    
Precipitation  
Precipitation T in 0.09 in 1.10 in (1978)
Month to date precipitation 1.41 2.26  
Year to date precipitation 1.41 2.26  
Sea Level Pressure  
Sea Level Pressure 30.14 in    
Wind  
Wind Speed 3 mph (SE)    
Max Wind Speed 10 mph    
Max Gust Speed 16 mph    
Visibility 5 miles    
Events Fog , Snow    
T = Trace of Precipitation, MM = Missing Value Source: NWS Daily Summary

Daily Weather History Graph

Daily Weather History Graph

Search for Another Location

Airport or City:

Trip Planner

Search our weather history database for the weather conditions in past years. The results will help you decide how hot, cold, wet, or windy it might be!

Date:

Astronomy

Jan. 25, 2013 Rise Set
Actual Time 7:32 AM EST 5:31 PM EST
Civil Twilight 7:04 AM EST 6:00 PM EST
Nautical Twilight 6:31 AM EST 6:33 PM EST
Astronomical Twilight 5:59 AM EST 7:05 PM EST
Moon 4:27 PM EST 6:11 AM EST
Length of Visible Light 10h 56m
Length of Day
9h 58m
Waxing Gibbous, 98% of the Moon is Illuminated
Jan 25
Waxing Gibbous
Jan 26
Full
Feb 3
Last Quarter
Feb 10
New
Feb 17
First Quarter

Hourly Weather History & Observations

Time (EST) Temp. Windchill Dew Point Humidity Pressure Visibility Wind Dir Wind Speed Gust Speed Precip Events Conditions
12:53 AM 10.9 °F - 3.0 °F 70% 30.52 in 10.0 mi Calm Calm - N/A   Clear
1:53 AM 10.9 °F - 3.9 °F 73% 30.49 in 10.0 mi Calm Calm - N/A   Clear
2:53 AM 12.0 °F - 3.9 °F 70% 30.48 in 10.0 mi Calm Calm - N/A   Clear
3:53 AM 12.9 °F - 1.9 °F 62% 30.46 in 10.0 mi Calm Calm - N/A   Scattered Clouds
4:53 AM 12.9 °F 5.2 °F 1.0 °F 59% 30.44 in 10.0 mi NE 4.6 mph - N/A   Scattered Clouds
5:53 AM 12.9 °F - 3.0 °F 65% 30.41 in 10.0 mi Calm Calm - N/A   Mostly Cloudy
6:53 AM 12.9 °F 6.9 °F 3.0 °F 65% 30.38 in 10.0 mi NNE 3.5 mph - N/A   Overcast
7:53 AM 14.0 °F 5.1 °F 1.9 °F 59% 30.27 in 10.0 mi ENE 5.8 mph - N/A   Overcast
8:53 AM 16.0 °F - 3.0 °F 57% 30.30 in 10.0 mi Calm Calm - N/A   Overcast
9:53 AM 17.1 °F 7.6 °F 3.0 °F 54% 30.25 in 10.0 mi ENE 6.9 mph - N/A   Overcast
10:53 AM 17.1 °F 10.0 °F 9.0 °F 71% 30.22 in 10.0 mi NNE 4.6 mph - N/A   Overcast
11:13 AM 17.6 °F 12.3 °F 10.4 °F 73% 30.15 in 7.0 mi North 3.5 mph - N/A   Overcast
11:18 AM 17.6 °F 12.3 °F 10.4 °F 73% 30.15 in 0.8 mi NE 3.5 mph - 0.00 in Snow Light Snow
11:27 AM 17.6 °F 12.3 °F 12.2 °F 79% 30.14 in 0.2 mi ENE 3.5 mph - 0.00 in Snow Heavy Snow
11:32 AM 17.6 °F - 12.2 °F 79% 30.13 in 1.0 mi Calm Calm - 0.00 in Snow Light Snow
11:36 AM 17.6 °F 12.3 °F 12.2 °F 79% 30.12 in 3.0 mi East 3.5 mph - 0.00 in Snow Light Snow
11:53 AM 18.0 °F 9.8 °F 12.9 °F 81% 30.16 in 6.0 mi East 5.8 mph - 0.00 in   Haze
12:53 PM 21.0 °F - 10.9 °F 65% 30.12 in 10.0 mi Calm Calm - N/A   Overcast
1:00 PM 21.2 °F - 10.4 °F 63% 30.05 in 7.0 mi Calm Calm - N/A   Overcast
1:05 PM 21.2 °F - 10.4 °F 63% 30.05 in 0.5 mi Calm Calm - 0.00 in Snow Snow
1:26 PM 19.4 °F - 15.8 °F 86% 30.04 in 0.8 mi Calm Calm - 0.00 in Snow Light Snow
1:44 PM 19.4 °F - 15.8 °F 86% 30.04 in 0.5 mi Calm Calm - 0.00 in Fog , Snow Light Snow
1:51 PM 19.4 °F - 15.8 °F 86% 30.04 in 1.0 mi Calm Calm - 0.00 in Snow Light Snow
1:53 PM 19.9 °F - 16.0 °F 85% 30.10 in 1.0 mi Calm Calm - 0.00 in Snow Light Snow
2:07 PM 19.4 °F 14.3 °F 15.8 °F 86% 30.03 in 0.8 mi SSE 3.5 mph - 0.00 in Snow Light Snow
2:28 PM 19.4 °F 12.8 °F 17.6 °F 93% 30.01 in 0.5 mi SSE 4.6 mph - 0.00 in Fog , Snow Light Snow
2:49 PM 19.4 °F - 17.6 °F 93% 30.01 in 0.2 mi Calm Calm - 0.00 in Fog , Snow Light Snow
2:53 PM 19.9 °F - 18.0 °F 92% 30.07 in 0.5 mi Calm Calm - 0.00 in Fog , Snow Light Snow
3:06 PM 21.2 °F - 17.6 °F 86% 30.00 in 0.8 mi Calm Calm - 0.00 in Snow Light Snow
3:50 PM 21.2 °F - 17.6 °F 86% 29.99 in 1.0 mi Calm Calm - 0.00 in Snow Light Snow
3:53 PM 21.0 °F - 18.0 °F 88% 30.06 in 1.2 mi Calm Calm - 0.00 in Snow Light Snow
4:00 PM 21.2 °F - 19.4 °F 93% 29.99 in 2.5 mi Calm Calm - 0.00 in Snow Light Snow
4:10 PM 21.2 °F - 19.4 °F 93% 29.99 in 1.5 mi Calm Calm - 0.00 in Snow Light Snow
4:50 PM 21.2 °F - 19.4 °F 93% 29.99 in 5.0 mi Calm Calm - 0.00 in   Overcast
4:51 PM 21.9 °F - 19.0 °F 89% 30.05 in 5.0 mi Calm Calm - 0.00 in   Overcast
5:53 PM 21.0 °F - 19.0 °F 92% 30.06 in 6.0 mi Calm Calm - N/A   Overcast
6:53 PM 21.0 °F 16.2 °F 19.0 °F 92% 30.08 in 7.0 mi South 3.5 mph - 0.00 in   Overcast
7:53 PM 21.0 °F 14.6 °F 19.0 °F 92% 30.08 in 6.0 mi SSW 4.6 mph - 0.00 in Snow Light Snow
8:05 PM 21.2 °F 14.9 °F 17.6 °F 86% 30.02 in 7.0 mi SSW 4.6 mph - 0.00 in Snow Light Snow
8:53 PM 21.0 °F 13.4 °F 18.0 °F 88% 30.09 in 9.0 mi Variable 5.8 mph - 0.00 in Snow Light Snow
9:25 PM 21.2 °F 11.7 °F 19.4 °F 93% 30.03 in 8.0 mi SW 8.1 mph - 0.00 in   Overcast
9:53 PM 21.0 °F 11.4 °F 19.0 °F 92% 30.10 in 9.0 mi SW 8.1 mph - 0.00 in   Overcast
10:53 PM 21.0 °F 11.4 °F 18.0 °F 88% 30.14 in 5.0 mi SW 8.1 mph - 0.00 in Snow Light Snow
11:42 PM 21.2 °F 13.6 °F 19.4 °F 93% 30.07 in 2.0 mi SW 5.8 mph - 0.00 in Snow Light Snow
11:53 PM 21.0 °F 12.4 °F 18.0 °F 88% 30.13 in 2.0 mi SSW 6.9 mph - 0.00 in Snow Light Snow